Location: Degersen
(52.2871°N, 9.5716°E)
Time: 23:21:41
(UTC+00:00)

USA 32 - Visible Passes

Search period start: 18 April 2026 00:00
Search period end: 28 April 2026 00:00
Orbit: 776 x 778 km, 85.0° (Epoch: 18 April)

Date Brightness Start Highest point End Pass type
(mag) Time Alt. Az. Time Alt. Az. Time Alt. Az.
18 Apr 4.2 19:17:30 10° SSE 19:22:35 55° E 19:27:43 10° NNE visible
18 Apr 6.1 20:59:30 10° SW 21:03:51 26° WNW 21:08:13 10° NNW visible
19 Apr 5.3 20:24:51 10° SW 20:29:46 41° WNW 20:34:44 10° N visible
20 Apr 4.5 19:50:38 10° SSW 19:55:49 66° W 20:01:04 10° N visible
20 Apr 6.9 21:35:39 10° W 21:37:50 12° WNW 21:40:01 10° NW visible
21 Apr 4.0 19:16:47 10° S 19:22:00 77° E 19:27:15 10° N visible
21 Apr 6.6 20:59:48 10° WSW 21:03:32 19° WNW 21:07:18 10° NNW visible
22 Apr 6.0 20:24:49 10° SW 20:29:23 30° WNW 20:34:00 10° N visible
23 Apr 5.1 19:50:19 10° SSW 19:55:22 48° WNW 20:00:27 10° N visible
24 Apr 4.3 19:16:13 10° S 19:21:27 78° W 19:26:44 10° N visible
24 Apr 6.9 21:00:27 10° W 21:03:18 15° WNW 21:06:10 10° NNW visible
25 Apr 6.5 20:24:58 10° WSW 20:29:03 23° WNW 20:33:10 10° NNW visible
26 Apr 5.8 19:50:10 10° SW 19:54:56 35° WNW 19:59:45 10° N visible
27 Apr 4.9 19:15:49 10° SSW 19:20:58 56° WNW 19:26:09 10° N visible
27 Apr 7.3 21:01:56 10° WNW 21:03:07 11° WNW 21:04:18 10° NW visible
